Regional Weather Roundup
Issued by NWS

Home | Current Version | Previous Version | Graphics & Text | Print | Product List | Glossary On
Versions: 1 2 3 4 5 6 7 8 9 10 11 12 13 14 15 16 17 18 19 20 21 22 23 24 25 26 27 28 29 30 31 32 33 34 35 36 37 38 39 40 41 42 43 44 45 46 47 48 49 50
000
ASUS43 KLMK 281302
RWRKY
KENTUCKY REGIONAL WEATHER ROUNDUP
NATIONAL WEATHER SERVICE LOUISVILLE KY
900 AM EDT TUE JUL 28 2015

NOTE "FAIR" INDICATES FEW OR NO CLOUDS BELOW 12,000 FEET
WITH NO SIGNIFICANT WEATHER AND/OR OBSTRUCTIONS TO VISIBILITY.

KYZ001>023-026-027-061>063-070>075-281400-
WESTERN AND SOUTH CENTRAL KENTUCKY

CITY           SKY/WX    TMP DP  RH WIND       PRES   REMARKS
PADUCAH        SUNNY     81  76  84 CALM      29.97R
HENDERSON      MOSUNNY   77  72  83 CALM      29.96S
OWENSBORO      SUNNY     80  73  79 CALM      29.98S
HOPKINSVILLE   MOSUNNY   82  75  79 SW3       29.99R
BOWLING GREEN  SUNNY     79  73  82 CALM      30.00S
GLASGOW        NOT AVBL
$$

KYZ024-025-028>034-038-045-046-053-281400-
NORTH CENTRAL KENTUCKY

CITY           SKY/WX    TMP DP  RH WIND       PRES   REMARKS
LOUISVILLE/SDF PTSUNNY   80  75  84 CALM      29.97F HAZE
LOUISVILLE/LOU PTSUNNY   79  75  87 CALM      29.99S
FORT KNOX      CLOUDY    76  75  95 S2        29.99R FOG
$$

KYZ035>037-039>044-047>052-055>060-089>105-281400-
NORTHEAST KENTUCKY

CITY           SKY/WX    TMP DP  RH WIND       PRES   REMARKS
LEXINGTON      MOSUNNY   78  74  87 S5        30.02R
COVINGTON      MOSUNNY   78  73  84 E5        30.01S
FRANKFORT      MOSUNNY   79  73  82 SE3       30.00S
$$

KYZ054-064>069-076>088-106>120-281400-
SOUTHEAST KENTUCKY

CITY           SKY/WX    TMP DP  RH WIND       PRES   REMARKS
JACKSON        PTSUNNY   73  72  96 CALM      30.05R FOG
LONDON         SUNNY     76  69  79 CALM      30.04S
SOMERSET       NOT AVBL
MIDDLESBORO    CLOUDY    71  71 100 CALM      30.06S FOG
MONTICELLO     MOSUNNY   78  76  94 CALM      30.06R
$$



USA.gov is the U.S. government's official web portal to all federal, state and local government web resources and services.